52,2013-07-17 19:27:15,1374089235,55.20787,-10.10259,3,2,2013-07-17 19:26:00,1374089160,16.73,5,15.8,0,4095,55.202,-10.0748,34,48
53,2013-07-17 20:06:18,1374091578,55.18737,-10.10259,2,2,2013-07-17 20:00:00,1374091200,14.84,16,15.8,30,4095,55.202,-10.0748,34,48
54,2013-07-17 21:06:13,1374095173,55.20787,-10.10259,2,1,2013-07-17 21:00:00,1374094800,14.99,12,15.8,30,0,55.2064,-10.0664,82,44
55,2013-07-17 22:06:15,1374098775,55.24209,-10.0517,10,2,2013-07-17 22:00:00,1374098400,14.94,8,15.8,30,60,55.2064,-10.0664,82,44
56,2013-07-17 23:06:10,1374102370,55.19766,-9.97886,3,2,2013-07-17 23:00:00,1374102000,14.91,11,15.8,30,120,55.2064,-10.0664,82,44
57,2013-07-18 00:06:14,1374105974,55.19253,-10.04073,2,6,2013-07-18 00:00:00,1374105600,14.89,11,15.8,30,0,55.2192,-10.0422,64,44
58,2013-07-18 01:06:14,1374109574,55.24209,-10.0517,9,1,2013-07-18 01:00:00,1374109200,14.94,11,15.8,30,60,55.2192,-10.0422,64,44
59,2013-07-18 02:06:09,1374113169,55.21816,-9.97886,2,0,2013-07-18 02:00:00,1374112800,14.95,13,15.8,30,120,55.2192,-10.0422,64,44
60,2013-07-18 03:06:14,1374116774,55.20787,-10.10259,2,4,2013-07-18 03:00:00,1374116400,14.94,11,15.8,30,0,55.2294,-10.0326,66,44
61,2013-07-18 04:06:13,1374120373,55.20787,-10.10259,2,6,2013-07-18 04:00:00,1374120000,14.93,12,15.8,30,60,55.2294,-10.0326,66,44
62,2013-07-18 05:06:10,1374123970,55.24723,-9.98976,3,2,2013-07-18 05:00:00,1374123600,14.94,10,15.8,30,120,55.2294,-10.0326,66,44
63,2013-07-18 06:06:19,1374127579,55.24723,-9.98976,3,1,2013-07-18 06:00:00,1374127200,14.96,8,15.8,30,0,55.2392,-10.0352,34,48
64,2013-07-18 07:06:09,1374131169,55.24209,-10.0517,2,0,2013-07-18 07:00:00,1374130800,15.03,13,15.8,30,60,55.2392,-10.0352,34,48
65,2013-07-18 08:06:12,1374134772,55.21303,-10.04073,6,0,2013-07-18 08:00:00,1374134400,15.07,12,15.8,30,120,55.2392,-10.0352,34,48
66,2013-07-18 09:06:09,1374138369,55.24209,-10.0517,3,1,2013-07-18 09:00:00,1374138000,15.1,12,15.8,30,0,55.2526,-10.0336,34,44
67,2013-07-18 10:06:09,1374141969,55.25088,-12.81542,193,2,2013-07-18 10:00:00,1374141600,15.14,11,15.8,30,60,55.2526,-10.0336,34,44
68,2013-07-18 11:06:10,1374145570,55.24723,-9.98976,2,3,2013-07-18 11:00:00,1374145200,15.14,12,15.8,30,120,55.2526,-10.0336,34,44
69,2013-07-18 12:06:14,1374149174,55.29101,-10.76663,97,3,2013-07-18 12:00:00,1374148800,15.09,10,15.8,30,0,55.265,-10.0154,58,44
70,2013-07-18 13:06:09,1374152769,55.24723,-9.98976,4,2,2013-07-18 13:00:00,1374152400,15.14,10,15.8,30,60,55.265,-10.0154,58,44
71,2013-07-18 14:06:10,1374156370,55.28126,-10.18663,70,2,2013-07-18 14:00:00,1374156000,15.21,11,15.8,30,120,55.265,-10.0154,58,44
72,2013-07-18 15:06:13,1374159973,55.29164,-10.06269,2,4,2013-07-18 15:00:00,1374159600,15.27,9,15.8,30,0,55.2734,-9.99619999999999,34,48
73,2013-07-18 16:06:09,1374163569,55.13605,-7.67757,176,2,2013-07-18 16:00:00,1374163200,15.36,8,15.6,30,60,55.2734,-9.99619999999999,34,48
74,2013-07-18 17:06:25,1374167185,55.24723,-9.98976,7,2,2013-07-18 17:00:00,1374166800,15.39,11,15.6,30,120,55.2734,-9.99619999999999,34,48
75,2013-07-18 18:06:12,1374170772,55.17588,-6.48591,234,3,2013-07-18 18:00:00,1374170400,15.41,11,15.6,30,0,55.28,-9.9982,52,48
76,2013-07-18 19:06:09,1374174369,55.29679,-10.00068,6,2,2013-07-18 19:00:00,1374174000,15.33,11,15.6,30,60,55.28,-9.9982,52,48
77,2013-07-18 20:06:12,1374177972,55.29679,-10.00068,12,7,2013-07-18 20:00:00,1374177600,15.32,11,15.6,30,120,55.28,-9.9982,52,48
78,2013-07-18 21:06:13,1374181573,55.29679,-10.00068,4,9,2013-07-18 21:00:00,1374181200,15.32,12,15.6,30,0,55.294,-9.9984,14,44
79,2013-07-18 22:06:14,1374185174,55.2677,-9.98976,6,3,2013-07-18 22:00:00,1374184800,15.31,11,15.6,30,60,55.294,-9.9984,14,44
80,2013-07-18 23:06:09,1374188769,55.3019,-9.93865,3,1,2013-07-18 23:00:00,1374188400,15.34,12,15.6,30,120,55.294,-9.9984,14,44
81,2013-07-19 00:06:09,1374192369,55.2677,-9.98976,4,1,2013-07-19 00:00:00,1374192000,15.36,11,15.6,30,0,55.3072,-9.98179999999999,34,48
82,2013-07-19 01:06:09,1374195969,55.53632,-5.90614,265,1,2013-07-19 01:00:00,1374195600,15.36,10,15.6,30,60,55.3072,-9.98179999999999,34,48
83,2013-07-19 02:06:10,1374199570,55.29679,-10.00068,2,5,2013-07-19 02:00:00,1374199200,15.34,12,15.6,30,120,55.3072,-9.98179999999999,34,48
84,2013-07-19 03:06:12,1374203172,55.3019,-9.93865,10,3,2013-07-19 03:00:00,1374202800,15.32,11,15.6,30,0,55.3194,-9.96519999999998,12,36
85,2013-07-19 04:06:11,1374206771,55.35145,-9.94954,3,2,2013-07-19 04:00:00,1374206400,15.28,12,15.6,30,60,55.3194,-9.96519999999998,12,36
86,2013-07-19 05:06:09,1374210369,55.34632,-10.01163,4,0,2013-07-19 05:00:00,1374210000,15.26,11,15.6,30,120,55.3194,-9.96519999999998,12,36
87,2013-07-19 06:06:12,1374213972,55.3019,-9.93865,3,0,2013-07-19 06:00:00,1374213600,15.2,11,15.6,30,0,55.3246,-9.9598,60,44
88,2013-07-19 07:06:09,1374217569,55.29679,-10.00068,2,1,2013-07-19 07:00:00,1374217200,15.17,11,15.6,30,60,55.3246,-9.9598,60,44
89,2013-07-19 08:06:12,1374221172,55.34632,-10.01163,11,1,2013-07-19 08:00:00,1374220800,15.18,11,15.6,30,120,55.3246,-9.9598,60,44
90,2013-07-19 09:06:12,1374224772,55.32235,-9.93865,2,9,2013-07-19 09:00:00,1374224400,15.13,11,15.6,30,0,55.331,-9.97539999999998,84,48
91,2013-07-19 10:06:10,1374228370,55.23392,-14.96792,326,3,2013-07-19 10:00:00,1374228000,15.15,14,15.6,30,60,55.331,-9.97539999999998,84,48
92,2013-07-19 11:06:12,1374231972,55.29679,-10.00068,5,4,2013-07-19 11:00:00,1374231600,15.24,13,15.6,30,120,55.331,-9.97539999999998,84,48
93,2013-07-19 12:06:21,1374235581,55.48983,-12.76219,191,2,2013-07-19 12:00:00,1374235200,15.33,10,15.6,30,0,55.3482,-9.9742,86,44
94,2013-07-19 13:06:09,1374239169,55.34632,-10.01163,1,1,2013-07-19 13:00:00,1374238800,15.42,11,15.6,30,60,55.3482,-9.9742,86,44
95,2013-07-19 14:06:36,1374242796,55.34632,-10.01163,3,1,2013-07-19 14:00:00,1374242400,15.52,12,15.6,30,120,55.3482,-9.9742,86,44
96,2013-07-19 15:06:11,1374246371,55.35654,-9.88742,2,12,2013-07-19 15:00:00,1374246000,15.56,13,15.6,36,0,55.3656,-9.95919999999998,62,44
97,2013-07-19 16:06:12,1374249972,55.30249,-9.17238,82,2,2013-07-19 16:00:00,1374249600,15.6,13,15.6,30,60,55.3656,-9.95919999999998,62,44
98,2013-07-19 17:06:09,1374253569,55.35145,-9.94954,2,8,2013-07-19 17:00:00,1374253200,15.6,12,15.6,30,120,55.3656,-9.95919999999998,62,44
99,2013-07-19 18:06:09,1374257169,55.37071,-8.93326,95,2,2013-07-19 18:00:00,1374256800,15.65,13,15.6,30,0,55.3716,-9.94899999999998,92,44
100,2013-07-19 19:06:10,1374260770,55.40098,-9.96044,3,3,2013-07-19 19:00:00,1374260400,15.65,14,15.6,30,60,55.3716,-9.94899999999998,92,44
101,2013-07-19 20:06:11,1374264371,55.35654,-9.88742,13,8,2013-07-19 20:00:00,1374264000,15.61,13,15.6,30,120,55.3716,-9.94899999999998,92,44
102,2013-07-19 21:06:16,1374267976,55.38567,-9.89826,2,3,2013-07-19 21:00:00,1374267600,15.59,13,15.6,30,0,55.375,-9.96539999999999,50,44
103,2013-07-19 22:06:13,1374271573,55.35145,-9.94954,4,2,2013-07-19 22:00:00,1374271200,15.55,15,15.6,30,60,55.375,-9.96539999999999,50,44
104,2013-07-19 23:06:14,1374275174,55.34632,-10.01163,10,6,2013-07-19 23:00:00,1374274800,15.54,13,15.6,30,120,55.375,-9.96539999999999,50,44
105,2013-07-20 00:06:12,1374278772,55.38057,-9.96044,4,2,2013-07-20 00:00:00,1374278400,15.56,11,15.6,30,0,55.3896,-9.97,62,44
106,2013-07-20 01:06:10,1374282370,55.43522,-9.90912,4,3,2013-07-20 01:00:00,1374282000,15.56,13,15.6,30,60,55.3896,-9.97,62,44
107,2013-07-20 02:06:09,1374285969,55.38057,-9.96044,3,2,2013-07-20 02:00:00,1374285600,15.56,13,15.6,30,120,55.3896,-9.97,62,44
108,2013-07-20 03:06:17,1374289577,55.43011,-9.97137,8,2,2013-07-20 03:00:00,1374289200,15.53,13,15.6,30,0,55.4054,-9.9442,116,44
109,2013-07-20 04:06:24,1374293184,55.40607,-9.89826,2,1,2013-07-20 04:00:00,1374292800,15.51,13,15.6,30,60,55.4054,-9.9442,116,44
110,2013-07-20 05:06:10,1374296770,55.40098,-9.96044,3,8,2013-07-20 05:00:00,1374296400,15.49,13,15.6,30,120,55.4054,-9.9442,116,44
111,2013-07-20 06:06:11,1374300371,55.40098,-9.96044,2,2,2013-07-20 06:00:00,1374300000,15.49,15,15.6,30,0,55.408,-9.9228,58,48
112,2013-07-20 07:06:12,1374303972,55.3616,-9.82528,15,1,2013-07-20 07:00:00,1374303600,15.51,11,15.6,30,60,55.408,-9.9228,58,48
113,2013-07-20 08:06:11,1374307571,55.41114,-9.83605,2,4,2013-07-20 08:00:00,1374307200,15.53,11,15.6,30,120,55.408,-9.9228,58,48
114,2013-07-20 09:06:14,1374311174,55.40098,-9.96044,2,1,2013-07-20 09:00:00,1374310800,15.68,12,15.6,30,0,55.4038,-9.93259999999998,62,44
115,2013-07-20 10:06:34,1374314794,55.38057,-9.96044,6,1,2013-07-20 10:00:00,1374314400,15.76,10,15.6,30,60,55.4038,-9.93259999999998,62,44
116,2013-07-20 11:06:17,1374318377,55.40098,-9.96044,1,2,2013-07-20 11:00:00,1374318000,15.99,10,15.6,34,120,55.4038,-9.93259999999998,62,44
117,2013-07-20 12:06:12,1374321972,55.69688,-15.35014,350,2,2013-07-20 12:00:00,1374321600,16.32,15,15.6,30,0,55.414,-9.95179999999999,62,48
118,2013-07-20 13:06:09,1374325569,55.43011,-9.97137,6,2,2013-07-20 13:00:00,1374325200,16.43,11,15.6,30,60,55.414,-9.95179999999999,62,48
119,2013-07-20 14:06:09,1374329169,55.6015,-14.29787,10,2,2013-07-20 14:00:00,1374328800,16.55,11,15.6,30,120,55.414,-9.95179999999999,62,48
120,2013-07-20 15:06:14,1374332774,55.43522,-9.90912,3,1,2013-07-20 15:00:00,1374332400,16.59,9,15.6,30,0,55.433,-9.9402,50,48
121,2013-07-20 16:06:09,1374336369,55.51005,-11.34719,111,2,2013-07-20 16:00:00,1374336000,16.92,8,15.6,30,60,55.433,-9.9402,50,48
122,2013-07-20 17:06:10,1374339970,55.45049,-9.97137,2,6,2013-07-20 17:00:00,1374339600,16.92,12,15.6,30,120,55.433,-9.9402,50,48
123,2013-07-20 18:06:13,1374343573,55.3568,-9.12017,141,2,2013-07-20 18:00:00,1374343200,16.94,11,15.6,30,0,55.439,-9.92779999999999,62,48
124,2013-07-20 19:06:15,1374347175,55.43522,-9.90912,2,2,2013-07-20 19:00:00,1374346800,16.91,12,15.6,30,60,55.439,-9.92779999999999,62,48
125,2013-07-20 20:06:11,1374350771,55.37718,-8.42466,117,7,2013-07-20 20:00:00,1374350400,16.87,10,15.6,30,120,55.439,-9.92779999999999,62,48
126,2013-07-20 21:06:13,1374354373,55.43011,-9.97137,2,5,2013-07-20 21:00:00,1374354000,16.81,12,15.6,30,0,55.4394,-9.93559999999999,56,44
127,2013-07-20 22:06:18,1374357978,55.43011,-9.97137,3,3,2013-07-20 22:00:00,1374357600,16.8,12,15.6,30,60,55.4394,-9.93559999999999,56,44
128,2013-07-20 23:06:09,1374361569,55.40607,-9.89826,2,11,2013-07-20 23:00:00,1374361200,16.61,12,15.6,30,120,55.4394,-9.93559999999999,56,44
129,2013-07-21 00:06:12,1374365172,55.40098,-9.96044,2,7,2013-07-21 00:00:00,1374364800,16.58,12,15.6,30,0,55.4442,-9.9502,50,48
130,2013-07-21 01:06:10,1374368770,55.48475,-9.92001,23,2,2013-07-21 01:00:00,1374368400,16.47,10,15.6,30,60,55.4442,-9.9502,50,48
131,2013-07-21 02:06:09,1374372369,55.43522,-9.90912,2,1,2013-07-21 02:00:00,1374372000,16.54,10,15.6,30,120,55.4442,-9.9502,50,48
132,2013-07-21 03:06:12,1374375972,55.56992,-7.31383,178,3,2013-07-21 03:00:00,1374375600,16.63,12,15.6,30,0,55.4514,-9.9408,32,48
133,2013-07-21 04:06:13,1374379573,55.45049,-9.97137,2,1,2013-07-21 04:00:00,1374379200,16.53,9,15.6,30,60,55.4514,-9.9408,32,48
134,2013-07-21 05:06:07,1374383167,55.45559,-9.90912,3,1,2013-07-21 05:00:00,1374382800,16.43,9,15.6,30,120,55.4514,-9.9408,32,48
135,2013-07-21 06:06:15,1374386775,55.45559,-9.90912,2,0,2013-07-21 06:00:00,1374386400,16.34,10,15.6,30,0,55.4568,-9.9288,56,48
136,2013-07-21 07:06:09,1374390369,55.47963,-9.98233,3,2,2013-07-21 07:00:00,1374390000,16.32,12,15.6,30,60,55.4568,-9.9288,56,48
137,2013-07-21 08:06:27,1374393987,55.47963,-9.98233,4,1,2013-07-21 08:00:00,1374393600,16.35,12,15.6,30,120,55.4568,-9.9288,56,48
138,2013-07-21 09:06:16,1374397576,55.43011,-9.97137,4,13,2013-07-21 09:00:00,1374397200,16.36,11,15.6,30,0,55.457,-9.93859999999998,32,48
139,2013-07-21 10:06:20,1374401180,55.48475,-9.92001,7,0,2013-07-21 10:00:00,1374400800,16.43,10,15.6,30,60,55.457,-9.93859999999998,32,48
140,2013-07-21 11:06:35,1374404795,55.45559,-9.90912,2,2,2013-07-21 11:00:00,1374404400,16.52,11,15.6,30,120,55.457,-9.93859999999998,32,48
141,2013-07-21 12:06:10,1374408370,55.47963,-9.98233,4,2,2013-07-21 12:00:00,1374408000,16.55,10,15.6,35,0,55.4576,-9.953,92,48
142,2013-07-21 13:06:09,1374411969,55.43011,-9.97137,4,2,2013-07-21 13:00:00,1374411600,16.57,9,15.6,30,60,55.4576,-9.953,92,48
143,2013-07-21 14:06:10,1374415570,55.48475,-9.92001,4,2,2013-07-21 14:00:00,1374415200,16.79,10,15.6,30,120,55.4576,-9.953,92,48
144,2013-07-21 15:06:14,1374419174,55.47963,-9.98233,2,5,2013-07-21 15:00:00,1374418800,16.72,11,15.6,30,0,55.464,-9.9512,122,48
145,2013-07-21 16:06:12,1374422772,55.54682,-11.80706,154,2,2013-07-21 16:00:00,1374422400,17.01,11,15.6,30,60,55.464,-9.9512,122,48
146,2013-07-21 17:06:12,1374426372,55.43522,-9.90912,7,2,2013-07-21 17:00:00,1374426000,16.8,12,15.6,30,120,55.464,-9.9512,122,48
147,2013-07-21 18:06:13,1374429973,55.47945,-10.6896,80,4,2013-07-21 18:00:00,1374429600,16.81,11,15.6,30,0,55.4718,-9.9462,50,48
148,2013-07-21 19:06:12,1374433572,55.48475,-9.92001,5,3,2013-07-21 19:00:00,1374433200,16.75,13,15.6,30,60,55.4718,-9.9462,50,48
149,2013-07-21 20:06:11,1374437171,55.52337,-10.76357,117,3,2013-07-21 20:00:00,1374436800,16.67,14,15.6,30,120,55.4718,-9.9462,50,48
150,2013-07-21 21:06:11,1374440771,55.47963,-9.98233,4,2,2013-07-21 21:00:00,1374440400,16.71,15,15.6,30,0,55.4736,-9.9538,20,40
151,2013-07-21 22:06:14,1374444374,55.43011,-9.97137,14,3,2013-07-21 22:00:00,1374444000,16.75,13,15.6,30,60,55.4736,-9.9538,20,40
152,2013-07-21 23:06:19,1374447979,55.48475,-9.92001,2,1,2013-07-21 23:00:00,1374447600,16.72,14,15.6,30,120,55.4736,-9.9538,20,40
153,2013-07-22 00:06:24,1374451584,55.43011,-9.97137,4,1,2013-07-22 00:00:00,1374451200,16.71,12,15.6,30,0,55.4688,-9.96719999999999,62,36
154,2013-07-22 01:06:10,1374455170,55.4641,-10.16913,69,1,2013-07-22 01:00:00,1374454800,16.56,11,15.6,30,60,55.4688,-9.96719999999999,62,36
155,2013-07-22 02:06:09,1374458769,55.47448,-10.04462,2,2,2013-07-22 02:00:00,1374458400,16.6,11,15.6,30,120,55.4688,-9.96719999999999,62,36
156,2013-07-22 03:06:12,1374462372,55.49919,-8.96275,120,7,2013-07-22 03:00:00,1374462000,16.61,8,15.6,30,0,55.4684,-9.96939999999998,86,44
157,2013-07-22 04:06:12,1374465972,55.48475,-9.92001,3,3,2013-07-22 04:00:00,1374465600,16.63,8,15.6,30,60,55.4684,-9.96939999999998,86,44
158,2013-07-22 05:06:13,1374469573,55.47448,-10.04462,7,4,2013-07-22 05:00:00,1374469200,16.67,7,15.6,30,120,55.4684,-9.96939999999998,86,44
159,2013-07-22 06:06:20,1374473180,55.47963,-9.98233,4,0,2013-07-22 06:00:00,1374472800,16.62,10,15.6,30,0,55.4738,-9.96379999999999,56,48
160,2013-07-22 07:06:09,1374476769,55.47448,-10.04462,5,0,2013-07-22 07:00:00,1374476400,16.64,12,15.6,30,60,55.4738,-9.96379999999999,56,48
161,2013-07-22 08:06:11,1374480371,55.47963,-9.98233,7,1,2013-07-22 08:00:00,1374480000,16.59,14,15.6,30,120,55.4738,-9.96379999999999,56,48
162,2013-07-22 09:06:12,1374483972,55.48475,-9.92001,3,2,2013-07-22 09:00:00,1374483600,16.68,13,15.6,30,0,55.4714,-9.96939999999998,34,48
163,2013-07-22 10:06:10,1374487570,55.48475,-9.92001,1,1,2013-07-22 10:00:00,1374487200,16.75,11,15.6,30,60,55.4714,-9.96939999999998,34,48
164,2013-07-22 11:06:11,1374491171,55.43011,-9.97137,7,3,2013-07-22 11:00:00,1374490800,16.84,13,15.6,30,120,55.4714,-9.96939999999998,34,48
165,2013-07-22 12:06:12,1374494772,55.45559,-9.90912,2,4,2013-07-22 12:00:00,1374494400,16.87,11,15.6,30,0,55.4648,-9.98739999999998,92,44
166,2013-07-22 13:06:10,1374498370,55.47448,-10.04462,1,2,2013-07-22 13:00:00,1374498000,16.95,9,15.6,30,60,55.4648,-9.98739999999998,92,44
167,2013-07-22 14:06:11,1374501971,55.47448,-10.04462,3,4,2013-07-22 14:00:00,1374501600,17.07,7,15.6,30,120,55.4648,-9.98739999999998,92,44
168,2013-07-22 15:06:10,1374505570,55.43011,-9.97137,2,4,2013-07-22 15:00:00,1374505200,17.18,9,15.6,30,0,55.4644,-9.99160000000001,32,44
169,2013-07-22 16:06:16,1374509176,55.45559,-9.90912,5,4,2013-07-22 16:00:00,1374508800,17.21,11,15.6,30,60,55.4644,-9.99160000000001,32,44
170,2013-07-22 17:06:17,1374512777,55.47448,-10.04462,2,3,2013-07-22 17:00:00,1374512400,17.17,9,15.6,30,120,55.4644,-9.99160000000001,32,44
171,2013-07-22 18:06:12,1374516372,55.64168,-13.14227,211,5,2013-07-22 18:00:00,1374516000,17.12,8,15.6,30,0,55.4698,-9.98859999999999,86,44
172,2013-07-22 19:06:10,1374519970,55.47448,-10.04462,3,3,2013-07-22 19:00:00,1374519600,17.03,12,15.6,30,60,55.4698,-9.98859999999999,86,44
173,2013-07-22 20:06:09,1374523569,55.47739,-10.36708,260,2,2013-07-22 20:00:00,1374523200,16.91,11,15.6,30,120,55.4698,-9.98859999999999,86,44
174,2013-07-22 21:06:13,1374527173,55.47448,-10.04462,3,2,2013-07-22 21:00:00,1374526800,16.91,11,15.6,30,0,55.4696,-9.99639999999999,66,40
175,2013-07-22 22:06:08,1374530768,55.43011,-9.97137,4,2,2013-07-22 22:00:00,1374530400,16.89,9,15.6,30,60,55.4696,-9.99639999999999,66,40
176,2013-07-22 23:06:09,1374534369,55.42497,-10.0336,6,3,2013-07-22 23:00:00,1374534000,16.82,10,15.6,30,120,55.4696,-9.99639999999999,66,40
177,2013-07-23 00:06:12,1374537972,55.43011,-9.97137,3,4,2013-07-23 00:00:00,1374537600,16.83,11,15.6,30,0,55.461,-10.0148,32,44
178,2013-07-23 01:06:12,1374541572,55.36376,-11.81718,138,1,2013-07-23 01:00:00,1374541200,16.78,10,15.6,30,60,55.461,-10.0148,32,44
179,2013-07-23 02:06:09,1374545169,55.42497,-10.0336,3,2,2013-07-23 02:00:00,1374544800,16.82,7,15.6,30,120,55.461,-10.0148,32,44
180,2013-07-23 03:06:12,1374548772,55.50378,-8.90021,107,1,2013-07-23 03:00:00,1374548400,16.69,9,15.6,30,0,55.457,-10.025,32,48
181,2013-07-23 04:06:13,1374552373,55.43011,-9.97137,2,6,2013-07-23 04:00:00,1374552000,16.66,9,15.6,30,60,55.457,-10.025,32,48
182,2013-07-23 05:06:16,1374555976,55.52186,-8.64982,109,1,2013-07-23 05:00:00,1374555600,16.63,9,15.6,30,120,55.457,-10.025,32,48
183,2013-07-23 06:06:12,1374559572,55.42497,-10.0336,2,6,2013-07-23 06:00:00,1374559200,16.58,10,15.6,30,0,55.4602,-10.0198,32,48
184,2013-07-23 07:06:11,1374563171,55.57607,-7.69945,182,3,2013-07-23 07:00:00,1374562800,16.64,8,15.6,30,60,55.4602,-10.0198,32,48
185,2013-07-23 08:06:12,1374566772,55.47963,-9.98233,1,3,2013-07-23 08:00:00,1374566400,16.69,9,15.6,30,120,55.4602,-10.0198,32,48
186,2013-07-23 09:06:13,1374570373,55.46931,-10.10689,3,2,2013-07-23 09:00:00,1374570000,16.65,8,15.6,30,0,55.4568,-10.0278,80,48
187,2013-07-23 10:06:12,1374573972,55.42497,-10.0336,5,1,2013-07-23 10:00:00,1374573600,16.6,11,15.6,30,60,55.4568,-10.0278,80,48
188,2013-07-23 11:06:12,1374577572,55.46931,-10.10689,2,17,2013-07-23 11:00:00,1374577200,16.55,9,15.6,30,120,55.4568,-10.0278,80,48
189,2013-07-23 12:06:13,1374581173,55.47448,-10.04462,8,4,2013-07-23 12:00:00,1374580800,16.62,10,15.6,30,0,55.4484,-10.0466,32,48
190,2013-07-23 13:06:12,1374584772,55.47448,-10.04462,8,2,2013-07-23 13:00:00,1374584400,16.59,9,15.6,30,60,55.4484,-10.0466,32,48
191,2013-07-23 14:06:09,1374588369,55.42497,-10.0336,3,2,2013-07-23 14:00:00,1374588000,16.7,9,15.6,30,120,55.4484,-10.0466,32,48
192,2013-07-23 15:06:09,1374591969,55.47448,-10.04462,4,3,2013-07-23 15:00:00,1374591600,16.62,9,15.6,30,0,55.4446,-10.0568,52,48
193,2013-07-23 16:06:09,1374595569,55.47448,-10.04462,4,3,2013-07-23 16:00:00,1374595200,16.48,10,15.6,30,60,55.4446,-10.0568,52,48
194,2013-07-23 17:06:09,1374599169,55.46931,-10.10689,2,7,2013-07-23 17:00:00,1374598800,16.53,11,15.6,30,120,55.4446,-10.0568,52,48
195,2013-07-23 18:06:14,1374602774,55.65017,-13.34244,222,5,2013-07-23 18:00:00,1374602400,16.68,9,15.6,30,0,55.4508,-10.0506,62,48
196,2013-07-23 19:06:10,1374606370,55.42497,-10.0336,6,2,2013-07-23 19:00:00,1374606000,16.56,11,15.6,30,60,55.4508,-10.0506,62,48
197,2013-07-23 20:06:09,1374609969,55.5875,-12.60453,178,5,2013-07-23 20:00:00,1374609600,16.54,11,15.6,30,120,55.4508,-10.0506,62,48
198,2013-07-23 21:06:12,1374613572,55.44893,-10.10689,1,7,2013-07-23 21:00:00,1374613200,16.5,10,15.6,30,0,55.452,-10.0488,14,40
199,2013-07-23 22:06:09,1374617169,55.56152,-12.26747,168,4,2013-07-23 22:00:00,1374616800,16.43,12,15.6,30,60,55.452,-10.0488,14,40
200,2013-07-23 23:06:11,1374620771,55.42497,-10.0336,2,9,2013-07-23 23:00:00,1374620400,16.42,13,15.6,30,120,55.452,-10.0488,14,40
201,2013-07-24 00:06:13,1374624373,55.4198,-10.0958,2,2,2013-07-24 00:00:00,1374624000,16.38,12,15.6,30,0,55.445,-10.0684,170,44
202,2013-07-24 01:06:09,1374627969,55.4198,-10.0958,3,2,2013-07-24 01:00:00,1374627600,16.52,18,15.6,30,60,55.445,-10.0684,170,44
203,2013-07-24 02:06:10,1374631570,55.42497,-10.0336,2,2,2013-07-24 02:00:00,1374631200,16.56,14,15.6,30,120,55.445,-10.0684,170,44
204,2013-07-24 03:06:13,1374635173,55.36467,-11.49552,114,3,2013-07-24 03:00:00,1374634800,16.53,13,15.6,30,0,55.441,-10.078,16,40
205,2013-07-24 04:06:10,1374638770,55.4198,-10.0958,2,6,2013-07-24 04:00:00,1374638400,16.48,11,15.6,30,60,55.441,-10.078,16,40
206,2013-07-24 05:06:10,1374642370,55.4198,-10.0958,3,1,2013-07-24 05:00:00,1374642000,16.44,11,15.6,30,120,55.441,-10.078,16,40
207,2013-07-24 06:06:09,1374645969,55.47448,-10.04462,2,2,2013-07-24 06:00:00,1374645600,16.44,13,15.6,30,0,55.444,-10.076,32,48
208,2013-07-24 07:06:09,1374649569,55.53477,-8.32718,128,1,2013-07-24 07:00:00,1374649200,16.45,14,15.6,30,60,55.444,-10.076,32,48
209,2013-07-24 08:06:10,1374653170,55.44893,-10.10689,3,1,2013-07-24 08:00:00,1374652800,16.43,12,15.6,30,120,55.444,-10.076,32,48
210,2013-07-24 09:06:28,1374656788,55.59171,-7.44783,182,1,2013-07-24 09:00:00,1374656400,16.42,11,15.6,30,0,55.443,-10.0684,80,44
211,2013-07-24 10:06:11,1374660371,55.47448,-10.04462,5,0,2013-07-24 10:00:00,1374660000,16.38,14,15.6,30,60,55.443,-10.0684,80,44
212,2013-07-24 11:06:19,1374663979,55.42497,-10.0336,3,2,2013-07-24 11:00:00,1374663600,16.35,17,15.6,30,120,55.443,-10.0684,80,44
213,2013-07-24 12:06:14,1374667574,55.46931,-10.10689,4,4,2013-07-24 12:00:00,1374667200,16.42,14,15.6,30,0,55.433,-10.089,200,44
214,2013-07-24 13:06:10,1374671170,55.4198,-10.0958,5,2,2013-07-24 13:00:00,1374670800,16.44,17,15.6,30,60,55.433,-10.089,200,44
215,2013-07-24 14:06:11,1374674771,55.42497,-10.0336,2,6,2013-07-24 14:00:00,1374674400,16.52,13,15.6,30,120,55.433,-10.089,200,44
216,2013-07-24 15:06:09,1374678369,55.44372,-10.16913,2,3,2013-07-24 15:00:00,1374678000,16.54,15,15.6,30,0,55.4304,-10.1084,92,44
217,2013-07-24 16:06:12,1374681972,55.49323,-10.1803,14,4,2013-07-24 16:00:00,1374681600,16.5,15,15.6,30,60,55.4304,-10.1084,92,44
218,2013-07-24 17:06:11,1374685571,55.4198,-10.0958,9,9,2013-07-24 17:00:00,1374685200,16.5,13,15.6,30,120,55.4304,-10.1084,92,44
219,2013-07-24 18:06:12,1374689172,55.71403,-14.88627,310,4,2013-07-24 18:00:00,1374688800,16.55,13,15.6,30,0,55.4392,-10.102,64,44
220,2013-07-24 19:06:10,1374692770,55.4146,-10.15798,2,7,2013-07-24 19:00:00,1374692400,16.57,13,15.6,30,60,55.4392,-10.102,64,44
221,2013-07-24 20:06:09,1374696369,55.46931,-10.10689,10,5,2013-07-24 20:00:00,1374696000,16.55,12,15.6,30,120,55.4392,-10.102,64,44
222,2013-07-24 21:06:11,1374699971,55.46931,-10.10689,4,6,2013-07-24 21:00:00,1374699600,16.54,12,15.6,30,0,55.4358,-10.094,32,48
223,2013-07-24 22:06:12,1374703572,55.4146,-10.15798,2,4,2013-07-24 22:00:00,1374703200,16.52,13,15.6,30,60,55.4358,-10.094,32,48
224,2013-07-24 23:06:09,1374707169,55.42497,-10.0336,3,2,2013-07-24 23:00:00,1374706800,16.5,13,15.6,30,120,55.4358,-10.094,32,48
225,2013-07-25 00:06:11,1374710771,55.4198,-10.0958,2,5,2013-07-25 00:00:00,1374710400,16.51,11,15.6,30,0,55.4232,-10.1174,110,44
226,2013-07-25 01:06:11,1374714371,55.32112,-14.34223,277,1,2013-07-25 01:00:00,1374714000,16.52,12,15.6,30,60,55.4232,-10.1174,110,44
227,2013-07-25 02:06:10,1374717970,55.4146,-10.15798,2,1,2013-07-25 02:00:00,1374717600,16.52,14,15.6,30,120,55.4232,-10.1174,110,44
228,2013-07-25 03:06:12,1374721572,55.2465,-13.13606,207,5,2013-07-25 03:00:00,1374721200,16.51,11,15.6,30,0,55.4172,-10.1496,12,48
229,2013-07-25 04:06:14,1374725174,55.4198,-10.0958,3,1,2013-07-25 04:00:00,1374724800,16.48,11,15.6,30,60,55.4172,-10.1496,12,48
230,2013-07-25 05:06:09,1374728769,55.4245,-10.73997,79,1,2013-07-25 05:00:00,1374728400,16.49,11,15.6,30,120,55.4172,-10.1496,12,48